Regional Weather Roundup
Issued by NWS

Home | Current Version | Previous Version | Graphics & Text | Print | Product List | Glossary On
Versions: 1 2 3 4 5 6 7 8 9 10 11 12 13 14 15 16 17 18 19 20 21 22 23 24 25 26 27 28 29 30 31 32 33 34 35 36 37 38 39 40 41 42 43 44 45 46 47 48 49 50
001
ASUS44 KMEG 220400
RWRTN
TENNESSEE HOURLY STATE WEATHER ROUNDUP
NATIONAL WEATHER SERVICE MEMPHIS TN
1100 PM CDT MON AUG 21 2017

TNZ002-004-019-021-049-052-054-088>092-220500-
WEST TENNESSEE

CITY           SKY/WX    TMP DP  RH WIND       PRES   REMARKS
MEMPHIS INTL   PTCLDY    82  75  79 S8        30.10S
NWS MEMPHIS      N/A     81 N/A N/A MISG        N/A
JACKSON        CLEAR     77  76  96 S3        30.10F
DYERSBURG      CLEAR     81  77  88 S3        30.08F
$$

TNZ008-025-027-028-033-062-065-066-220500-
NORTH MIDDLE TENNESSEE

CITY           SKY/WX    TMP DP  RH WIND       PRES   REMARKS
NASHVILLE      CLEAR     77  70  79 S5        30.13F
CLARKSVILLE    CLEAR     75  71  87 CALM      30.10F
SMYRNA         CLEAR     74  70  87 SE3       30.14F
CROSSVILLE     CLEAR     69  67  93 CALM      30.24R
$$

TNZ061-075-076-078-094-096-097-220500-
SOUTH MIDDLE TENNESSEE

CITY           SKY/WX    TMP DP  RH WIND       PRES   REMARKS
TULLAHOMA      CLEAR     73  70  88 CALM      30.18S
WINCHESTER     CLEAR     73  72  94 CALM      30.16F
$$

TNZ017-018-042-046-047-220500-
NORTHEAST TENNESSEE

CITY           SKY/WX    TMP DP  RH WIND       PRES   REMARKS
TRI CITIES     PTCLDY    71  69  93 CALM      30.21S
$$

TNZ012-013-036-069-073-074-220500-
CENTRAL EAST TENNESSEE

CITY           SKY/WX    TMP DP  RH WIND       PRES   REMARKS
KNOXVILLE      PTCLDY    78  68  71 SW3       30.17R
OAK RIDGE      PTCLDY    75  71  87 CALM      30.19R
GATLINBURG     CLEAR     73  68  83 CALM      30.17S
$$

TNZ083-085-099-220500-
SOUTHEAST TENNESSEE

CITY           SKY/WX    TMP DP  RH WIND       PRES   REMARKS
CHATTANOOGA    PTCLDY    78  71  79 CALM      30.15F
$$

SKY/WX REPORTED AS FAIR MEANS FEW OR NO CLOUDS BELOW
12 THOUSAND FEET.





USA.gov is the U.S. government's official web portal to all federal, state and local government web resources and services.